Погода в Юровке

Россия / Краснодарский край     45°06′50″N   37°24′47″E
темп.,
°C
ветер,
м/с
пор.,
м/с
влажн.,
%
обл.,
%
осадки,
мм/ч
давл.,
гПа
погр.,
м
9 мая, вс
вс900:00+13зюз5998100 1.6 1010395
03:00+11ссз81294100 2.8 1012719
06:00+10ссз51091100 1.8 1014615
09:00+10ссз71080100 2.6 10171166
12:00+11ссз9115879 0.1 10191567
15:00+13ссз810495 0.1 10211918
18:00+12сз59545 0.0 10221890
21:00+7з22605 0.0 102421
10 мая, пн
пн1000:00+7з12675 0.0 102523
03:00+6з11675 0.0 102515
06:00+6з11690 0.0 102517
09:00+12ссз664785 0.1 10252017
12:00+13ссз7745100 0.1 10242351
15:00+13сз674345 0.1 10242132
18:00+12зсз455296 0.0 10221510
21:00+8юз335999 0.0 102244
11 мая, вт
вт1100:00+10зюз51059100 0.0 1019338
03:00+10зюз71265100 0.1 1017474
06:00+10з71271100 0.4 1016584
09:00+10зюз71274100 1.4 10151337
12:00+10зюз91376100 0.5 10151405
15:00+9юз81283100 0.7 1015871
18:00+9юз61089100 2.0 1015665
21:00+9ююз4890100 2.8 1015345
12 мая, ср
ср1200:00+10ююз61188100 0.3 1014593
03:00+11ююз71288100 0.6 1014660
06:00+10ю61183100 0.3 1015483
09:00+11ю597789 0.5 1015627
12:00+16ююз67565 0.0 10151121
15:00+17ююз44525 0.0 1015953
18:00+17з21580 0.0 1014156
21:00+11св22830 0.0 101417
13 мая, чт
чт1300:00+10всв3389100 0.0 101336
03:00+11всв32895 0.0 101227
06:00+11в3489100 0.0 101263
09:00+19в455913 0.0 1011257
12:00+24в5646100 0.0 1011603
15:00+24в6754100 0.0 1010557
18:00+23в510693 0.0 1010425
21:00+18вюв33875 0.0 101026